TimeEDT,TemperatureF,Dew PointF,Humidity,Sea Level PressureIn,VisibilityMPH,Wind Direction,Wind SpeedMPH,Gust SpeedMPH,PrecipitationIn,Events,Conditions,WindDirDegrees,DateUTC
12:56 AM,59.0,48.0,67,29.99,10.0,Calm,Calm,-,N/A,,Clear,0,2014-06-08 04:56:00
2:56 AM,57.0,46.9,69,29.97,10.0,SE,3.5,-,N/A,,Clear,130,2014-06-08 06:56:00
3:56 AM,55.0,46.9,74,29.96,10.0,SE,4.6,-,N/A,,Clear,130,2014-06-08 07:56:00
4:56 AM,55.0,46.0,72,29.95,10.0,East,3.5,-,N/A,,Clear,100,2014-06-08 08:56:00
5:56 AM,53.1,46.9,80,29.96,10.0,ESE,3.5,-,N/A,,Clear,120,2014-06-08 09:56:00
6:56 AM,55.9,48.0,75,29.96,10.0,Calm,Calm,-,N/A,,Clear,0,2014-06-08 10:56:00
7:56 AM,61.0,52.0,72,29.96,10.0,Calm,Calm,-,N/A,,Clear,0,2014-06-08 11:56:00
8:56 AM,66.0,53.1,63,29.94,10.0,Calm,Calm,-,N/A,,Clear,0,2014-06-08 12:56:00
9:56 AM,71.1,53.1,53,29.94,10.0,South,11.5,16.1,N/A,,Clear,170,2014-06-08 13:56:00
10:56 AM,73.0,53.1,49,29.93,10.0,South,9.2,-,N/A,,Clear,190,2014-06-08 14:56:00
11:56 AM,75.0,55.9,51,29.91,10.0,SSE,10.4,16.1,N/A,,Clear,150,2014-06-08 15:56:00
1:56 PM,77.0,57.0,50,29.85,10.0,ESE,11.5,-,N/A,,Scattered Clouds,120,2014-06-08 17:56:00
2:56 PM,75.0,57.0,53,29.85,10.0,SSE,6.9,-,N/A,,Scattered Clouds,160,2014-06-08 18:56:00
3:56 PM,70.0,59.0,68,29.83,10.0,SSE,15.0,23.0,0.01,Rain,Light Rain,150,2014-06-08 19:56:00
4:56 PM,64.9,59.0,81,29.85,6.0,SSE,8.1,-,0.09,Rain,Light Rain,160,2014-06-08 20:56:00
5:11 PM,64.0,60.1,87,29.87,6.0,Variable,4.6,-,0.03,Rain,Rain,0,2014-06-08 21:11:00
5:21 PM,64.0,61.0,90,29.86,4.0,SE,5.8,-,0.08,Rain,Rain,130,2014-06-08 21:21:00
5:32 PM,63.0,60.1,90,29.86,10.0,Variable,3.5,-,0.08,Rain,Light Rain,0,2014-06-08 21:32:00
5:54 PM,62.6,60.8,94,29.86,4.0,North,5.8,-,0.14,Rain,Heavy Rain,360,2014-06-08 21:54:00
5:56 PM,63.0,60.1,90,29.85,4.0,NNE,8.1,-,0.14,Rain,Heavy Rain,20,2014-06-08 21:56:00
6:56 PM,63.0,60.1,90,29.83,9.0,Variable,3.5,-,0.03,Rain,Light Rain,0,2014-06-08 22:56:00
7:12 PM,63.0,60.1,90,29.84,10.0,SE,3.5,-,0.02,Rain-Thunderstorm,Light Rain,140,2014-06-08 23:12:00
7:44 PM,63.0,61.0,93,29.85,2.5,WNW,3.5,-,0.09,Rain-Thunderstorm,Rain,290,2014-06-08 23:44:00
7:51 PM,62.6,60.8,94,29.86,4.0,NW,9.2,-,0.12,Rain-Thunderstorm,Rain,310,2014-06-08 23:51:00
7:56 PM,62.1,59.0,90,29.85,4.0,NNW,8.1,-,0.17,Rain-Thunderstorm,Heavy Rain,340,2014-06-08 23:56:00
8:04 PM,61.0,57.9,90,29.86,4.0,NNE,6.9,-,0.07,Rain-Thunderstorm,Heavy Rain,20,2014-06-09 00:04:00
8:18 PM,61.0,57.9,90,29.87,3.0,Calm,Calm,-,0.19,Rain-Thunderstorm,Heavy Rain,0,2014-06-09 00:18:00
8:26 PM,61.0,57.9,90,29.88,6.0,Variable,4.6,-,0.21,Rain-Thunderstorm,Rain,0,2014-06-09 00:26:00
8:34 PM,61.0,57.9,90,29.87,3.0,NE,6.9,-,0.29,Rain-Thunderstorm,Heavy Rain,40,2014-06-09 00:34:00
8:45 PM,61.0,57.9,90,29.87,6.0,Calm,Calm,-,0.31,Rain,Rain,0,2014-06-09 00:45:00
8:56 PM,61.0,57.9,90,29.85,10.0,ENE,6.9,-,0.32,Rain,Light Rain,60,2014-06-09 00:56:00
9:07 PM,61.0,59.0,93,29.87,2.5,NNW,4.6,-,0.00,Rain,Light Rain,330,2014-06-09 01:07:00
9:22 PM,61.0,59.0,93,29.88,10.0,NNE,5.8,-,0.00,Rain,Light Rain,20,2014-06-09 01:22:00
9:56 PM,61.0,57.9,90,29.86,10.0,NNE,3.5,-,0.01,,Overcast,30,2014-06-09 01:56:00
10:13 PM,62.1,57.9,86,29.89,10.0,NE,6.9,-,0.00,Rain,Light Rain,40,2014-06-09 02:13:00
10:32 PM,62.1,57.9,86,29.89,9.0,North,6.9,-,0.02,Rain,Light Rain,10,2014-06-09 02:32:00
10:56 PM,61.0,57.9,90,29.86,10.0,Variable,5.8,-,0.02,Rain,Light Rain,0,2014-06-09 02:56:00
11:24 PM,60.1,57.0,90,29.90,10.0,NNE,10.4,-,0.00,,Overcast,20,2014-06-09 03:24:00
11:40 PM,60.1,55.9,86,29.91,10.0,NNE,12.7,-,0.00,,Overcast,20,2014-06-09 03:40:00
11:56 PM,59.0,55.9,90,29.88,10.0,NNE,11.5,-,0.00,Rain,Light Rain,20,2014-06-09 03:56:00